SKCUBE (42789 NORAD) Tracking and Keplerian Element Data

This shows tracking and keplerian element data for the satellite.

Feedback or suggestion? Click here.




ElementValue
Catalog42789
NameSKCUBE
Epoch Orbit10144
Epoch Day111.6905754
Epoch Year2019
RAAN170.9797
Inclination97.3575
Eccentricity0.001323
Argument of Perigee76.4613
Mean Anonmoly283.8097
Mean Motion15.22654186
Decay Rate1.193E-05
L11 42789U 17036AA 19111.69057540 .00001193 00000-0 54145-4 0 9993
L22 42789 97.3575 170.9797 0013230 76.4613 283.8097 15.22654186101441

Live tracking and technical data element details for SKCUBE (NORAD 42789). SKCUBE can be tracked NOW for your location showing map with azimuth and elevation plus other details from your city location.

Track the satellite on the map from your city or location and see movement details for azimuth, elevation, latitude, longitude, range, height, and movement on the map or in text.







IsCatalogInMostPopularTable: catalog: 42789, numindb: 207
Update: records affected: 1



GetName: 42789 SKCUBE

Hit Count: updated at: Tue, 23 Apr 2019 20:19:54 GMT